Regional Weather Roundup
Issued by NWS

Home | Current Version | Previous Version | Text Only | Print | Product List | Glossary On
Versions: 1 2 3 4 5 6 7 8 9 10 11 12 13 14 15 16 17 18 19 20 21 22 23 24 25 26 27 28 29 30 31 32 33 34 35 36 37 38 39 40 41 42 43 44 45 46 47 48 49 50
000
ASUS43 KMPX 250301
RWRMN
WEATHER ROUNDUP FOR MINNESOTA
NATIONAL WEATHER SERVICE TWIN CITIES/CHANHASSEN MN
1000 PM CDT FRI OCT 24 2014


NOTE: "FAIR" INDICATES FEW OR NO CLOUDS BELOW 12,000 FEET WITH NO
SIGNIFICANT WEATHER AND/OR OBSTRUCTIONS TO VISIBILITY. N/A MEANS
CURRENT SKY AND/OR WEATHER CONDITIONS ARE NOT AVAILABLE.

MNZ060>063-068>070-250400-
   Twin Cities Metro

CITY           SKY/WX    TMP DP  RH WIND       PRES   REMARKS
TWIN CITIES    PTCLDY    59  51  75 SW3       29.86R
ST PAUL        PTCLDY    52  52 100 CALM      29.86S FOG
CRYSTAL        CLEAR     60  50  69 SW5       29.84R
BLAINE         CLEAR     61  52  72 SW6       29.84S
LAKEVILLE      PTCLDY    55  50  82 SW3       29.86F
EDEN PRAIRIE   CLEAR     59  50  72 SW7       29.85S
SOUTH ST PAUL    N/A     51  50  95 CALM      29.86S FOG
LAKE ELMO      FOG       50  50 100 SW3       29.86S VSB<1/4
$$
MNZ001>005-007-008-013>017-022>024-027-028-250400-
   Northwest Minnesota

CITY           SKY/WX    TMP DP  RH WIND       PRES   REMARKS
BEMIDJI        MOCLDY    58  32  37 W17G24    29.82R
HALLOCK        PTCLDY    48  36  61 W10       29.82R
ROSEAU         CLEAR     55  37  50 W13       29.78R
WARROAD        CLEAR     54  39  58 SW10      29.77R
THIEF RVR FALL MOCLDY    54  34  47 W13       29.84S
CROOKSTON      PTCLDY    48  34  57 NW7       29.88R
FOSSTON        PTCLDY    54  32  43 W13G18    29.87R
DETROIT LAKES  PTCLDY    59  32  36 NW14      29.90R
MOORHEAD       MOCLDY    61  23  23 W9        29.91R
PARK RAPIDS    CLEAR     58  31  35 NW18      29.85R
MAHNOMEN       FAIR      55  32  42 W13       29.87R
$$
MNZ006-009>011-018-025>026-250400-
   North Central Minnesota

CITY           SKY/WX    TMP DP  RH WIND       PRES   REMARKS
BAUDETTE       CLEAR     56  35  45 VRB5      29.74R
FLAG ISLAND    CLEAR     55  36  47 W16       29.70R
INTL FALLS     CLEAR     57  35  43 W13       29.72R
WASKISH        PTCLDY    54  43  66 W7        29.78R
BIG FORK       PTCLDY    61  32  33 W9        29.78R
LONGVILLE      MOCLDY    61  32  33 W13G21    29.82R
GRAND RAPIDS   MOCLDY    61  37  41 W12       29.79R
CRANE LAKE     CLEAR     61  30  31 W7G25     29.71R
ORR            CLEAR     61  30  31 W12G22    29.71R
COOK           PTCLDY    61  34  36 W18G25    29.74R
WALKER         FAIR      60  31  33 W13G21    29.83R
$$
MNZ012-019>021-037-250400-
   Northeast Minnesota

CITY           SKY/WX    TMP DP  RH WIND       PRES   REMARKS
DULUTH         MOCLDY    57  45  64 W13       29.74F
ELY            PTCLDY    59  37  44 W10G20    29.70R
HIBBING        MOCLDY    61  38  42 W13G21    29.75R
EVELETH        MOCLDY    57  43  58 W7        29.75R
DULUTH HARBOR  MOCLDY    59  52  77 SW13      29.74F
TWO HARBORS    MOCLDY    57  39  51 W5        29.70F
SILVER BAY     MOCLDY    57  50  77 SW3       29.69S
GRAND MARAIS     N/A     46  44  93 W5        29.66F
G MARAIS ARPRT MOCLDY    52  45  76 SW7       29.67S
$$
MNZ029>031-032-039>041-046>048-054>057-064-250400-
   West Central Minnesota

CITY           SKY/WX    TMP DP  RH WIND       PRES   REMARKS
FERGUS FALLS   CLOUDY    63  27  25 NW16      29.91R
WHEATON        PTCLDY    57  37  47 W9        29.96R
MORRIS         PTCLDY    55  43  62 NW10      29.92R
ALEXANDRIA     PTCLDY    61  39  44 NW14      29.91R
ELBOW LAKE     MOCLDY    59  35  41 NW12      29.92R
WADENA         PTCLDY    61  37  41 NW10G16   29.87R
GLENWOOD       CLEAR     61  41  48 NW14      29.91R
APPLETON       CLEAR     57  43  58 NW8       29.91S
BENSON         CLEAR     55  43  62 NW9       29.91R
ORTONVILLE     CLEAR     63  39  42 NW12      29.93R
MADISON        CLEAR     61  41  48 NW9       29.93R
WILLMAR        FAIR      61  41  48 NW9       29.92R
$$
MNZ033>034-036-042>043-049>051-058-059-250400-
   Central Minnesota

CITY           SKY/WX    TMP DP  RH WIND       PRES   REMARKS
ST CLOUD       CLEAR     58  43  57 W10       29.85R
SAUK CENTRE    FAIR      56  43  62 W6        29.89R
PAYNESVILLE    CLEAR     56  41  56 SW10      29.89R
AITKIN         MOCLDY    63  43  48 W5        29.80R
PINE RIVER     PTCLDY    61  41  48 NW7       29.87R
BRAINERD       PTCLDY    61  41  47 W8        29.84R
STAPLES        CLEAR     59  36  41 W10       29.86R
LONG PRAIRIE   FAIR      61  41  48 W10       29.89R
LITTLE FALLS   CLEAR     61  41  48 W7        29.86R
LITCHFIELD     CLEAR     61  43  51 W10G16    29.89R
BUFFALO        CLEAR     55  45  67 CALM      29.86S
MAPLE LAKE     CLEAR     59  46  61 W6        29.86S
$$
MNZ037-044-045-052-053-250400-
   East Central Minnesota

CITY           SKY/WX    TMP DP  RH WIND       PRES   REMARKS
PRINCETON      PTCLDY    57  46  67 SW3       29.84S
MORA           MOCLDY    52  46  82 SW3       29.83S
CAMBRIDGE      PTCLDY    59  48  67 S3        29.81F
RUSH CITY      PTCLDY    51  49  93 CALM      29.82F
MOOSE LAKE     MOCLDY    52  46  82 SW5       29.77S
HINCKLEY       FAIR      52  50  93 CALM      29.81S
CLOQUET        CLOUDY    57  45  62 SW8       29.77R
MCGREGOR       MOCLDY    57  43  58 W6        29.81R
$$
MNZ071>073-080-081-089-090-097-098-250400-
   Southwest Minnesota

CITY           SKY/WX    TMP DP  RH WIND       PRES   REMARKS
MONTEVIDEO     CLEAR     61  43  51 N8        29.93R
GRANITE FALLS  CLEAR     52  42  68 W10       29.93R
CANBY          CLEAR     62  40  44 NW10      29.95R
MARSHALL       CLEAR     55  39  54 W13       29.91R
REDWOOD FALLS  CLEAR     62  40  44 W9        29.89S
OLIVIA         CLEAR     54  43  66 W8        29.89R
PIPESTONE      PTCLDY    52  41  66 W5        29.96S
WINDOM         CLEAR     52  39  62 SW5       29.94R
WORTHINGTON    CLEAR     54  39  58 W8        29.97R
JACKSON        CLEAR     54  37  54 W3        29.95S
TRACY          CLEAR     59  42  52 W8        29.93R
SLAYTON        CLEAR     59  39  47 W6        29.95S
$$
MNZ065>067-074>077-082>085-091>093-250400-
   South Central Minnesota

CITY           SKY/WX    TMP DP  RH WIND       PRES   REMARKS
MANKATO        MOCLDY    57  45  62 SW6       29.89S
NEW ULM        PTCLDY    54  45  71 SW7       29.89S
ST JAMES       PTCLDY    54  41  62 SW5       29.92S
FAIRMONT       PTCLDY    55   7  14 W10       29.93R
GLENCOE        PTCLDY    59  49  68 SW6       29.86S
FARIBAULT      MOCLDY    48  46  93 S3        29.89S
OWATONNA       MOCLDY    54  48  82 S5        29.90R
WASECA         MOCLDY    48  43  81 CALM      29.92R
ALBERT LEA     MOCLDY    50  50 100 CALM      29.91S FOG
$$
MNZ078>079-086>088-094>096-250400-
   Southeast Minnesota

CITY           SKY/WX    TMP DP  RH WIND       PRES   REMARKS
ROCHESTER      FOG       54  54 100 S6        29.91R VSB 1/4
RED WING       FOG       48  46  93 CALM      29.86S VSB 1/2
STANTON        MOCLDY    53  49  86 S6        29.86S
DODGE CENTER   MOCLDY    50  50 100 SW7       29.90R FOG
WINONA         CLOUDY    55  55 100 CALM      29.89S
AUSTIN         FOG       48  48 100 CALM      29.91S VSB 1/4
PRESTON        FOG       56  56  97 SW5       29.92R VSB 1/4
$$
ABBREVIATIONS USED IN REMARKS
   TC - TEMPERATURES IN CELSIUS
  WCI - WIND CHILL INDEX
   HX - HEAT INDEX
  VSB - VISIBILITY
$$



USA.gov is the U.S. government's official web portal to all federal, state and local government web resources and services.